{"data":{"norad_id":52262,"intl_designator":"2022-041B","name":"STARLINK-3761","alt_names":[],"object_type":"PAYLOAD","status":"ACTIVE","operator":null,"country":"US","launch_date":"2022-04-21","launch_site_code":"AFETR","launch_vehicle":null,"mission":null,"orbit_class":"UNKNOWN","rcs_meters":null,"size_class":null,"mass_kg":null,"dimensions":null,"purposes":["comms"],"wikipedia_slug":null,"has_3d_model":false,"image_url":null,"decayed_at":null,"tle_current":{"epoch":"2026-09-19T18:56:30.088896Z","epoch_age_seconds":116940,"freshness":"FRESH","line1":"1 52262U 22041B   26262.78923714  .00001890  00000+0  67084-4 0  9991","line2":"2 52262  53.1604 310.6964 0001291  87.3827 272.7323 15.34385472243754","mean_motion":15.34385472,"eccentricity":0.0001291,"inclination_deg":53.1604,"raan_deg":310.6964,"arg_perigee_deg":87.3827,"mean_anomaly_deg":272.7323,"bstar":6.7084e-5,"rev_number":24375,"period_min":93.848646658719,"perigee_km":461.86326277582,"apogee_km":463.62957887507,"semimajor_km":6840.8834208254,"source":"CELESTRAK","updated_at":"2026-09-20T09:00:39.993353Z"}}}